Location: East Irvine
(33.6759°N, 117.7598°W)
Time: 00:36:27
(UTC+00:00)

Meteor 2-1 Rocket - Pass Details

Date: 15 November 2025
Orbit: 822 x 911 km, 81.3° (Epoch: 07 December)

Event Time Altitude Azimuth Distance (km) Brightness Sun altitude
Rises 02:39:13 0° 181° (S) 3,466 7.5 -23.1°
Reaches altitude 10° 02:41:38 10° 179° (S) 2,542 6.7 -23.6°
Maximum altitude 02:47:25 74° 96° (E) 937 4.2 -24.8°
Enters shadow 02:49:52 37° 20° (NNE) 1,379 5.0 -25.3°
